Regional Weather Roundup
Issued by NWS Charleston, SC

Current Version | Previous Version | Graphics & Text | Print | Product List | Glossary On
Versions: 1 2 3 4 5 6 7 8 9 10 11 12 13 14 15 16 17 18 19 20 21 22 23 24 25 26 27 28 29 30 31 32 33 34 35 36 37 38 39 40 41 42 43 44 45 46 47 48 49 50
000
ASUS42 KCHS 302310
RWRCHS

REGIONAL WEATHER ROUNDUP
NATIONAL WEATHER SERVICE CHARLESTON SC
700 PM EDT TUE SEP 30 2014

NOTE: "FAIR" INDICATES FEW OR NO CLOUDS BELOW 12,000 FEET WITH NO
SIGNIFICANT WEATHER AND/OR OBSTRUCTIONS TO VISIBILITY.

NOT ALL STATIONS ARE QUALITY CONTROLLED BY THE NATIONAL
WEATHER SERVICE. USE DATA WITH CAUTION...ESPECIALLY
DEWPOINT OBSERVATIONS.

SCZ027-030-031-034>040-042>050-010000-
...SOUTH CAROLINA...

CITY           SKY/WX    TMP DP  RH WIND       PRES   REMARKS
N CHARLESTON   PTCLDY    77  64  64 N7        29.86R
WATERFRONT PRK   N/A     77 N/A N/A SE5         N/A
FORT JOHNSON   NOT AVBL
MOUNT PLEASANT FAIR      73  68  83 CALM      29.86R
JOHNS ISLAND   CLEAR     73  73 100 CALM      29.86R
PINOPOLIS        N/A     82  68  61 NW3       29.77S
MONCKS CORNER  FAIR      73  70  88 CALM      29.86R
SUMMERVILLE    FAIR      73  68  83 CALM      29.87R
BEAUFORT MCAS  PTCLDY    77  66  68 CALM      29.86R
BEAUFORT ARPT  FAIR      75  68  78 SE3       29.86R
HILTON HEAD IS CLEAR     73  68  83 CALM      29.87R
GEORGETOWN     NOT AVBL
WALTERBORO     CLEAR     79  61  53 CALM      29.88R
ORANGEBURG     CLEAR     77  64  64 CALM      29.87R
BARNWELL       FAIR      79  66  65 CALM      29.87R
AIKEN          FAIR      77  66  69 N3        29.92R
MANNING        FAIR      75  70  83 CALM      29.86R
KINGSTREE      NOT AVBL
COLUMBIA       PTCLDY    81  61  50 NW3       29.86R
SUMTER         PTCLDY    78  62  58 VRB2      29.85R
FLORENCE       CLEAR     76  64  66 CALM      29.86R
MYRTLE BEACH   PTCLDY    79  63  57 N8        29.85R
N MYRTLE BEACH PTCLDY    75  66  73 N3        29.84R

$$

GAZ063-065-086>088-099>101-113>116-118-119-134-136>141-150-010000-
...GEORGIA...

CITY           SKY/WX    TMP DP  RH WIND       PRES   REMARKS
SAVANNAH ARPT  PTCLDY    80  65  59 N5        29.86R
HUNTER AAF     CLEAR     75  69  81 SE5       29.84R
FORT STEWART   PTCLDY    77  68  72 CALM      29.85R
STATESBORO     NOT AVBL
SYLVANIA       CLEAR     77  71  83 CALM      29.87R
CLAXTON        MOCLDY    77  72  83 CALM      29.87R
THOMSON        CLEAR     76  72  87 CALM      29.93R
AUGUSTA-BUSH   CLEAR     79  64  60 N3        29.86R
AUGUSTA-DANIEL CLEAR     79  64  60 N5        29.88R
SWAINSBORO     FAIR      79  72  78 CALM      29.88S
VIDALIA        CLOUDY    77  68  73 CALM      29.87S
ALMA           CLOUDY    76  69  79 CALM      29.87R
WAYCROSS       CLOUDY    79  74  86 CALM      29.87R
JESUP          FAIR      77  73  88 CALM      29.87R
BRUNSWICK      CLEAR     77  68  73 CALM      29.87R
SAINT SIMONS   CLEAR     75  68  78 E6        29.86R

$$

SCZ027-028-034-036>038-045-046-048>050-GAZ119-141-010000-
...LAKE AND SUPPLEMENTAL COASTAL OBSERVATIONS...

STATION/POSITION TIME  TEMP    WIND        PRES    WAVE   SWELL
                       AIR SEA DIR/SP/G            HT/PER HT/PER/DIR
                 (UTC) (F)     (DEG/KT/KT) (MB)    (FT/S) (FT/S/D)
UPR LAKE MARION  NOT AVBL
WINYAH BAY       2200   76     110/  3     1010.0S
LAKE MURRAY      2200   78     240/  4/  5 1010.5S
ACE BASIN NERRS  2200   79        CALM     1011.0S
FORT PULASKI     2300   75      80/  6/  7 1011.3R
SAPELO ISLAND    NOT AVBL

$$

ANZ835-935-AMZ111-154-330-350-352-354-374-450-454-472-010000-
...C-MAN AND BUOY OBSERVATIONS...

STATION/POSITION TIME  TEMP    WIND        PRES    WAVE   SWELL
                       AIR SEA DIR/SP/G            HT/PER HT/PER/DIR
                 (UTC) (F)     (DEG/KT/KT) (MB)    (FT/S) (FT/S/D)
FOLLY BEACH CMAN 2200   76     120/  3/  4 1011.0R
BUOY 41004       2300   76 81   30/ 12/ 14 1010.1R   4/ 6   3/ 6
BUOY 41008       2300   75 79   40/ 10/ 12 1011.0R   3/ 6   3/ 70/ 6
5E ST. MARYS GA  2300      79                N/A     4/ 6
FRYING PAN BUOY  NOT AVBL
BUOY 41025       2300   74     350/ 17/ 21 1009.8R   4/ 4   2/ 60/ 8
CAPE LOOKOUT NC  2200   74      30/ 13/ 15 1010.0R
BUOY 41002       2154   77 81  140/ 12/ 14 1007.5    3/ 6   2/ 70/ 6
BUOY 41010       2300   80 84  320/  8/ 10 1009.3R   3/ 5   3/290/ 5
BUOY 41012       NOT AVBL
ST AUGUSTINE FL  2300   76      10/ 15/ 17 1011.2R
CAPERS NEARSHORE 2200   77     100/  6/  8   N/A
FRIPP NEARSHORE  NOT AVBL


$$



USA.gov is the U.S. government's official web portal to all federal, state and local government web resources and services.